Hourly Data Report for October 10, 2016

All times are specified in Local Standard Time (LST). Add 1 hour to adjust for Daylight Saving Time where and when it is observed.

PANGNIRTUNG
NUNAVUT

66°08'36.300" N
65°42'40.500" W
22.60 m
2403049
71826
WXP

Download Data

Hourly Data (October 2016)
Hourly Data Report for October 10, 2016
Temp Definition
°C
Dew Point Temp Definition
°C
Rel Hum Definition
%
Wind Dir Definition
10's deg

Wind Spd Definition
km/h
Visibility Definition
km
Stn Press Definition
kPa
Hmdx Definition


Wind Chill Definition


Weather Definition


TIME
00:00 -3.4 -6.4 80 25 21   100.71   -10 LegendNANA
01:00 -3.0 -6.4 78 28 12   100.78   -7 LegendNANA
02:00 -3.5 -6.4 80 26 19   100.80   -9 LegendNANA
03:00 -3.3 -6.5 79 27 15   100.82   -8 LegendNANA
04:00 -3.0 -7.1 74 31 7   100.83   -6 LegendNANA
05:00 -3.2 -6.6 77 29 11   100.86   -7 LegendNANA
06:00 -2.9 -6.8 74 28 9   100.87   -6 LegendNANA
07:00 -2.9 -7.1 73 28 9   100.90   -6 LegendNANA
08:00 -3.1 -7.2 73 29 18   100.94   -9 LegendNANA
09:00 -2.5 -7.7 68 27 20   100.98   -8 LegendNANA
10:00 -1.6 -6.7 68 25 16   101.00   -7 LegendNANA
11:00 -1.4 -6.7 67 26 12   101.02   -5 LegendNANA
12:00 -1.2 -6.7 66 29 11   101.05   -5 LegendNANA
13:00 -1.6 -5.9 73 26 11   101.09   -5 LegendNANA
14:00 -1.8 -5.3 77 26 8   101.10   -5 LegendNANA
15:00 -2.6 -3.1 97 22 5   101.15   -5 LegendNANA
16:00 -2.3 -3.5 92 26 2   101.16   -3 LegendNANA
17:00 -2.3 -3.5 92 0 1   101.17   -3 LegendNANA
18:00 -2.4 -3.6 91 16 3   101.19   -4 LegendNANA
19:00 -2.1 -3.5 90 16 3   101.22   -3 LegendNANA
20:00 -2.3 -4.0 88 17 1   101.22   -3 LegendNANA
21:00 -2.3 -3.6 91   0   101.21     LegendNANA
22:00 -2.8 -4.5 88 12 10   101.21   -7 LegendNANA
23:00 -2.4 -3.6 92 24 7   101.22   -5 LegendNANA

Notes on Data Quality.

Legend

  • E = Estimated
  • M = Missing
  • NA = Not Available
  • ‡ = Partner data that is not subject to review by the National Climate Archives
Date modified: